Theta_e
308 310 311 308 307 308 307 309 305 309 310 314 316 318 322 326 328 328 331 334 340 338 339 346 350 352 354 354 355 356 357 360 362 365 368 368 368 368 369 367 367 366 367 367
305 308 309 308 308 308 309 309 310 310 311 319 320 323 324 326 325 328 330 332 336 340 344 347 349 354 354 355 357 358 358 358 363 364 365 367 367 367 368 368 367 368 367 367
299 307 307 304 308 309 310 311 311 308 315 320 319 320 323 326 325 326 325 329 335 338 346 357 350 355 356 355 358 360 358 362 363 364 364 366 367 367 366 367 368 367 367 368
298 304 296 308 315 313 311 312 314 314 317 319 321 324 325 327 325 323 325 327 333 330 334 343 339 341 357 359 360 359 361 361 365 365 364 366 367 367 367 366 367 367 366 367
296 298 304 308 311 311 309 310 315 315 317 319 320 321 323 325 327 328 332 334 334 331 331 342 339 342 352 353 358 361 359 360 362 366 365 365 366 366 367 367 367 367 368 367
298 295 295 306 313 316 315 305 316 316 316 317 318 311 319 332 332 333 336 339 340 340 339 341 343 339 355 350 358 357 359 360 365 363 365 365 365 366 369 369 366 367 367 368
295 294 301 308 311 314 303 308 320 321 320 318 318 325 330 331 332 334 336 337 342 343 342 347 351 350 362 364 356 360 361 364 364 365 363 367 368 368 368 368 367 366 366 367
295 294 293 309 309 305 314 317 316 316 317 319 322 323 324 326 328 331 335 336 340 344 346 350 352 353 354 360 366 376 365 365 365 367 363 365 367 368 369 368 365 365 364 365
297 297 311 308 308 311 311 311 313 313 314 315 315 316 317 319 326 328 332 337 338 345 350 353 352 369 363 364 375 376 375 369 367 367 367 366 367 366 366 367 364 363 361 361
298 302 304 306 309 310 310 310 311 312 312 313 312 313 317 319 323 327 330 334 336 341 347 352 366 366 368 371 371 372 372 370 369 368 366 367 367 367 365 364 363 361 360 358
297 301 304 305 306 308 309 310 310 311 311 311 312 312 317 319 321 324 328 335 337 344 350 355 366 369 367 370 369 366 369 367 367 366 364 366 354 347 362 345 337 362 359 360
295 302 303 305 307 309 308 307 309 309 310 312 313 314 316 318 320 321 324 334 335 347 348 353 360 360 364 368 371 369 365 364 360 360 364 363 344 337 304 304 301 300 303 333
298 303 303 306 309 309 308 309 310 310 311 310 312 313 315 317 319 319 323 331 335 343 349 353 358 354 357 365 370 367 366 362 359 352 361 360 353 347 333 314 300 299 299 301
298 300 299 301 302 308 309 309 310 311 312 312 312 315 315 316 318 320 326 331 336 343 348 353 353 351 354 359 368 367 367 330 359 357 361 359 357 357 352 340 336 328 306 307
299 299 299 302 304 306 309 309 308 309 310 312 314 315 316 316 318 320 329 332 335 343 346 348 348 353 355 357 359 358 358 362 364 361 361 354 355 355 352 355 349 330 323 315
307 304 302 299 302 304 306 307 307 307 309 312 313 315 316 319 321 327 329 331 336 339 343 341 344 347 350 355 357 353 350 333 342 351 349 349 347 345 344 344 342 339 338 331
302 302 303 302 303 304 305 307 309 310 311 312 314 316 318 318 321 326 329 334 339 339 338 341 341 349 348 350 348 344 344 344 337 344 344 344 344 342 342 341 339 339 333 321
304 304 306 309 307 307 307 309 309 310 311 313 314 315 321 322 323 325 329 331 335 332 335 341 341 343 345 346 346 344 342 341 343 341 342 341 340 341 339 338 335 333 332 325
304 304 304 306 309 311 309 308 308 309 311 314 313 312 314 314 314 316 324 325 325 325 327 331 328 333 336 334 336 340 340 338 338 338 337 331 335 335 334 334 334 333 331 330
305 305 305 305 307 307 306 307 307 306 306 306 306 304 306 308 309 309 310 309 311 316 323 325 328 327 328 328 329 334 333 332 332 332 332 331 330 332 332 324 332 333 334 334
303 306 305 304 304 307 307 307 306 305 305 305 304 303 303 304 304 305 304 304 307 312 315 317 319 320 324 324 323 322 323 324 326 325 324 327 327 327 327 324 324 325 328 327
305 304 306 305 304 305 307 309 306 306 305 305 305 305 303 302 304 304 304 303 306 308 311 314 315 317 318 319 319 319 318 319 319 320 321 322 321 321 321 323 322 320 319 319
306 305 306 307 305 305 306 306 306 307 306 305 304 303 303 303 304 302 301 305 306 305 307 309 311 312 313 315 315 316 314 314 314 315 316 316 315 315 314 315 314 314 314 313
306 306 306 308 308 306 303 304 306 306 305 304 306 308 307 305 305 307 306 305 304 305 305 305 307 308 309 311 310 310 312 313 312 311 311 307 310 307 305 310 315 313 310 308
305 307 307 305 303 303 306 306 304 304 305 304 305 306 306 305 303 306 306 304 303 303 303 304 306 306 308 307 306 307 308 309 310 309 310 311 311 310 307 305 302 301 306 309
304 302 303 307 304 304 303 303 302 303 304 302 302 303 303 304 304 305 305 304 305 303 301 302 302 304 304 304 306 305 305 306 307 307 308 308 308 306 306 305 304 302 300 300
302 299 302 302 302 302 302 303 301 300 300 303 301 302 302 302 302 301 301 301 302 301 301 301 301 301 301 302 302 303 304 303 299 305 306 306 306 307 307 306 305 304 301 298
Wind_Speed
27 24 22 27 26 30 31 20 22 18 18 13 11 10 5 7 12 15 15 13 9 16 20 20 19 20 18 19 20 21 21 21 21 19 17 18 18 18 18 18 17 18 16 16
18 22 20 18 31 30 29 29 23 25 17 17 15 12 9 11 10 10 9 8 7 4 3 4 15 15 19 18 18 18 18 20 19 20 19 19 18 18 17 18 18 16 17 18
16 18 22 19 15 27 25 26 24 20 14 19 20 18 12 10 7 7 4 4 6 5 4 2 5 12 16 17 15 14 16 16 18 19 18 19 18 18 18 18 17 18 18 18
10 12 18 10 11 16 13 25 24 18 15 11 17 17 14 9 5 2 1 3 4 4 7 9 9 10 11 14 14 13 11 13 14 16 18 17 18 18 17 16 17 17 18 20
6 7 7 12 14 18 11 8 5 18 18 10 11 10 12 9 7 6 5 4 5 8 9 6 12 13 11 11 14 14 15 14 13 14 16 17 19 19 17 16 16 17 17 19
9 7 12 9 16 5 12 12 9 4 2 7 7 5 7 13 13 13 12 10 10 11 11 10 14 6 9 15 12 15 15 15 12 14 15 17 18 18 15 16 17 14 17 18
10 7 4 12 17 4 9 7 17 20 13 2 5 10 10 11 11 10 9 10 9 8 8 7 7 9 3 1 9 15 15 14 14 15 15 15 15 15 15 15 14 16 17 15
12 13 11 19 11 8 8 12 15 17 18 16 14 13 13 12 11 11 10 11 12 9 8 8 7 6 9 5 6 4 9 13 13 13 13 12 15 13 14 14 15 14 15 13
9 12 10 14 14 14 11 8 11 11 13 12 12 12 12 11 12 11 12 10 13 14 11 8 10 4 6 6 4 4 6 9 11 12 12 11 13 12 11 12 12 12 11 11
11 16 17 12 12 12 11 10 9 11 11 12 11 14 14 11 11 11 11 12 13 16 17 10 4 6 5 4 5 6 8 8 8 10 11 11 8 10 10 11 11 11 11 11
17 17 15 19 16 16 16 14 13 13 14 13 14 14 12 12 14 14 13 11 14 18 13 13 8 6 6 6 7 8 7 8 9 9 10 10 4 2 8 3 4 10 10 8
17 22 20 19 18 17 17 19 17 15 16 15 13 13 13 11 11 12 15 10 16 16 12 14 5 6 7 10 6 7 7 7 8 9 9 9 9 7 18 12 8 12 11 7
25 25 27 25 25 26 24 18 14 15 15 16 14 13 15 14 12 14 16 11 15 15 12 14 9 5 7 9 8 7 7 7 7 9 9 10 10 9 8 6 10 14 14 15
32 28 33 32 21 21 20 21 18 18 19 16 15 14 15 14 14 15 13 10 13 16 12 11 3 4 6 8 8 7 8 5 9 9 8 9 10 10 10 9 8 6 12 9
22 27 33 26 24 24 21 20 18 17 18 17 15 16 14 16 17 15 12 11 17 11 12 10 7 1 3 7 2 3 4 2 2 3 4 9 7 5 5 4 6 9 7 5
12 12 9 18 22 22 22 21 20 19 18 17 16 16 16 18 16 17 12 13 15 12 6 2 1 4 8 4 5 4 7 6 6 6 7 7 6 6 6 5 5 5 5 8
13 13 5 12 16 20 22 20 19 18 17 19 17 17 18 17 18 14 14 11 8 5 4 5 4 4 2 6 7 5 6 6 8 6 6 6 5 6 5 6 3 4 7 5
24 24 22 5 10 9 11 14 14 17 16 17 19 20 16 16 16 14 9 5 8 4 2 6 7 3 3 7 9 9 8 9 9 9 8 7 6 6 5 5 6 4 3 4
28 27 29 29 20 8 9 8 11 11 11 7 11 10 10 12 15 13 4 4 9 2 6 8 15 14 12 12 6 5 9 10 10 11 9 8 6 8 7 7 6 8 6 7
21 25 26 27 27 22 18 14 17 16 13 15 20 23 19 15 18 18 13 21 15 9 7 9 12 17 16 18 16 12 15 15 14 12 10 10 10 8 8 8 7 6 4 2
19 16 20 21 19 20 20 17 16 17 18 23 25 20 18 21 20 21 23 18 18 16 17 22 12 14 12 14 15 16 15 13 13 13 12 11 11 11 11 10 11 10 12 11
10 11 11 14 16 18 16 15 20 19 20 18 16 17 20 20 18 23 23 16 12 23 18 11 15 19 14 21 14 14 14 14 13 13 12 12 11 10 10 11 11 11 11 10
13 15 10 8 12 13 15 14 15 11 12 15 17 17 17 13 12 15 15 15 14 22 13 11 17 22 28 17 14 14 14 15 13 13 11 10 10 10 10 11 11 11 11 11
12 12 13 10 11 11 12 8 8 11 12 13 11 9 8 7 8 7 7 10 11 16 13 15 15 22 20 13 13 14 14 12 12 11 11 11 11 10 11 9 9 9 9 11
13 9 11 11 11 8 9 9 11 12 13 13 12 11 11 8 9 8 8 10 12 13 12 18 19 20 12 12 11 9 9 10 10 10 10 9 8 9 10 11 11 11 11 11
10 9 9 10 10 9 9 9 9 8 8 9 9 9 10 9 9 8 7 7 7 7 10 9 8 8 10 10 9 11 12 11 10 8 8 8 8 8 9 10 9 9 9 9
9 11 9 8 8 9 10 9 9 9 10 8 9 9 9 8 9 8 9 9 8 9 9 7 8 10 9 9 10 10 9 9 10 9 8 9 8 8 8 9 8 9 9 9
Wind_Direction
241 237 224 194 208 213 216 214 219 215 208 147 139 147 155 122 177 207 183 200 171 189 177 179 177 182 191 192 190 194 195 199 203 203 207 208 209 211 209 212 213 208 208 213
266 267 273 270 198 213 216 226 204 238 207 130 129 130 146 105 80 63 72 85 85 94 120 136 188 174 186 194 192 194 195 201 197 201 200 204 209 211 210 211 213 210 211 211
254 249 247 243 245 201 217 213 223 216 230 142 142 136 139 127 94 110 93 96 129 149 167 215 168 185 184 192 193 191 199 196 198 198 201 202 204 208 210 212 209 212 211 213
278 275 246 257 224 255 235 216 211 225 219 191 160 135 115 113 108 99 120 343 334 274 236 180 215 214 178 179 187 198 203 200 195 194 199 198 202 206 209 210 212 211 214 214
256 239 228 250 219 215 236 225 260 220 224 100 77 91 105 116 151 176 245 281 308 283 287 249 194 211 178 182 183 189 203 210 201 194 194 197 202 204 205 208 211 215 216 218
299 273 222 247 243 189 208 231 288 284 336 131 118 166 79 42 39 32 27 15 357 346 337 349 348 291 171 185 175 193 204 206 203 206 199 201 202 204 204 208 214 213 221 223
243 264 268 352 358 91 170 58 24 28 14 159 75 64 65 43 34 19 13 351 344 323 311 309 317 327 339 274 210 194 199 196 201 201 209 201 199 201 205 208 211 218 224 225
237 241 236 46 341 35 42 53 35 33 26 29 29 32 25 15 8 5 359 351 338 322 291 306 299 289 288 276 254 216 194 189 195 201 202 204 200 201 203 205 212 217 222 230
244 243 293 346 5 8 27 35 30 26 11 7 359 356 346 340 347 347 349 354 331 320 308 274 274 298 277 260 267 276 199 191 187 194 195 208 196 202 202 206 214 216 224 225
266 276 296 310 326 330 341 348 346 335 343 328 331 330 332 336 336 343 340 340 323 313 292 280 289 239 241 266 277 256 226 195 184 185 188 195 203 194 202 207 211 221 215 229
294 293 286 289 290 299 307 308 307 309 306 304 308 306 317 321 328 329 321 337 317 302 338 325 351 348 353 284 220 247 215 194 191 191 183 188 115 251 206 115 269 214 221 225
301 310 314 306 301 290 268 264 270 277 278 283 290 301 306 305 312 312 308 333 307 305 317 311 316 313 314 312 260 219 213 193 199 199 179 190 145 104 41 46 35 57 55 79
284 287 289 289 289 298 301 285 277 280 277 280 283 295 301 301 297 291 291 303 303 307 301 302 272 298 291 295 268 221 223 203 204 205 178 189 159 151 132 60 51 52 50 49
259 265 267 259 259 268 269 278 278 278 278 286 285 287 285 290 293 291 283 296 291 283 284 281 183 258 274 282 271 220 224 256 205 191 162 189 168 180 160 164 164 123 51 69
238 239 245 255 261 259 262 265 267 276 273 270 274 281 283 287 279 267 282 300 282 263 261 268 299 178 203 265 189 152 186 150 180 143 135 127 116 134 179 137 109 116 130 108
12 353 243 233 244 246 247 256 259 250 262 272 273 271 283 282 289 298 306 297 290 274 216 180 120 327 300 208 199 115 80 13 82 102 92 91 128 152 120 133 129 140 150 126
7 358 288 228 226 230 239 245 255 262 251 259 269 282 268 269 270 282 285 275 220 150 171 204 187 239 253 183 179 162 156 152 121 122 123 134 137 88 114 113 88 73 83 60
28 15 5 324 244 240 237 245 257 259 256 259 260 262 280 275 266 258 257 213 113 24 22 200 156 163 279 233 178 165 160 152 167 141 116 117 112 124 146 137 109 118 123 76
18 11 15 21 43 80 79 88 87 70 51 60 70 56 50 59 66 38 58 117 69 58 9 325 87 82 68 38 348 124 103 87 77 84 82 108 127 127 143 149 124 97 112 130
19 15 16 20 33 52 57 57 69 65 60 74 74 60 46 45 56 56 40 61 37 355 23 15 51 74 67 53 48 66 71 73 75 65 57 49 55 70 73 52 94 99 76 57
15 15 34 28 22 38 49 44 53 55 47 52 59 58 54 55 47 53 41 39 16 4 18 36 26 55 62 68 60 57 53 52 63 64 52 59 64 59 60 57 56 48 46 38
41 38 38 49 49 40 33 41 53 51 50 52 58 58 56 48 42 57 50 38 16 22 33 9 42 41 69 62 66 65 63 62 58 56 53 46 46 52 52 50 56 51 54 46
18 15 33 92 82 68 51 45 47 61 74 69 61 56 57 55 45 50 47 19 23 26 25 18 13 47 49 49 51 67 66 66 67 64 62 67 60 56 56 55 56 47 49 48
2 20 21 38 54 71 75 73 91 105 94 83 92 91 78 82 89 75 70 54 30 50 31 13 17 37 49 56 51 47 48 49 67 76 68 61 62 54 48 34 72 69 65 61
349 42 35 34 28 47 50 70 62 47 51 55 51 59 71 71 64 62 71 69 38 49 48 26 17 21 53 57 43 48 69 79 85 73 51 58 63 75 72 65 56 40 35 65
13 10 47 39 40 43 42 40 40 44 62 55 47 49 47 38 37 42 51 58 58 92 80 41 23 60 53 44 55 55 42 31 46 57 89 103 95 77 60 59 68 62 54 48
66 15 21 46 51 48 29 40 57 40 20 38 52 45 44 39 36 39 36 34 42 40 51 64 44 48 43 49 50 45 52 63 33 32 47 49 44 53 96 104 91 89 77 64